sat.trackr.live / text

‹ back to catalog

SES-3

NORAD 37748 · 2011-035A

PAYLOAD ACTIVE UNKNOWN

§ Identity

Operator
Country
US
Launch date
2011-07-15
Launch site
TYMSC
Launch vehicle
Mass (kg)
RCS (m²)
19.95

Purposes: comms

External: N2YO · Heavens-Above · Gunter

§ Orbital elements

Epoch: 2026-05-25T03:15:18.125280Z

Period
1,436.09 min
Inclination
1.2693°
Eccentricity
0.0002889
Mean motion
1.00272546 rev/d
Perigee alt
35,774.2 km
Apogee alt
35,798.6 km
Semi-major
42,164.5 km
B*
0.0000e+0
RAAN
83.3228°
Arg perigee
334.3588°
Mean anomaly
130.8779°
Rev number
5,436

§ Raw data

SES-31 37748U 11035A   26145.13562645 -.00000104  00000+0  00000+0 0  99932 37748   1.2693  83.3228 0002889 334.3588 130.8779  1.00272546 54369

JSON: /api/v1/satellites/37748 · /tle

For live sub-satellite position, see the globe view (requires WebGL).

§ Visibility from observer

Set your observer location to see the next 7 days of passes ≥ 10°. The values pass through the URL so the page stays shareable.

No JS? Fill the form by hand. The geolocation button needs JavaScript.